| time (UTC) | temp F | wind direction | speed MPH | gust MPH | rain 1hr in | rain 24hr in | rain mn in | humidity % | barometer mb |
| 20260505081123 | 53 | 105 | 0.0 | 0.0 | 0.13 | 0.13 | 0.08 | 91 | 1013.4 |
| 20260505080049 | 52 | 105 | 0.0 | 0.0 | 0.04 | 0.11 | 0.05 | 91 | 1013.5 |
| 20260505075049 | 52 | 105 | 0.0 | 0.0 | 0.06 | 0.11 | 0.05 | 90 | 1013.6 |
| 20260505074024 | 52 | 105 | 0.0 | 0.0 | 0.05 | 0.10 | 0.04 | 90 | 1013.7 |
| 20260505073043 | 52 | 105 | 0.0 | 0.0 | 0.05 | 0.09 | 0.03 | 90 | 1013.6 |
| 20260505072108 | 52 | 105 | 0.0 | 0.0 | 0.06 | 0.08 | 0.02 | 90 | 1013.6 |
| 20260505071049 | 52 | 105 | 0.0 | 0.0 | 0.10 | 0.06 | 0.01 | 89 | 1013.8 |
| 20260505070051 | 53 | 105 | 0.0 | 0.0 | 0.00 | 0.06 | 0.00 | 90 | 1014.0 |
| 20260505065031 | 53 | 105 | 0.0 | 0.0 | 0.00 | 0.06 | 0.06 | 89 | 1014.0 |
| 20260505061833 | 52 | 171 | 0.0 | 3.0 | 0.00 | 0.04 | 0.05 | 89 | 1013.4 |
| 20260505054513 | 53 | 272 | 0.0 | 0.0 | 0.00 | 0.03 | 0.03 | 89 | 1013.4 |
| 20260505053514 | 54 | 122 | 0.0 | 0.0 | 0.00 | 0.03 | 0.03 | 89 | 1013.5 |
| 20260505052509 | 54 | 122 | 0.0 | 0.0 | 0.00 | 0.03 | 0.03 | 89 | 1013.4 |
| 20260505051459 | 54 | 123 | 0.0 | 0.0 | 0.00 | 0.02 | 0.02 | 89 | 1013.5 |
| 20260505050443 | 54 | 346 | 0.0 | 0.0 | 0.06 | 0.02 | 0.02 | 88 | 1013.6 |
| 20260505035931 | 56 | 5 | 0.0 | 2.0 | 0.00 | 0.00 | 0.00 | 83 | 1013.7 |
| 20260505034954 | 56 | 345 | 0.0 | 0.0 | 0.00 | 0.00 | 0.00 | 82 | 1013.5 |
| 20260505032918 | 56 | 62 | 0.0 | 0.0 | 0.00 | 0.00 | 0.00 | 81 | 1013.1 |
| 20260505031903 | 56 | 126 | 0.0 | 0.0 | 0.00 | 0.00 | 0.00 | 80 | 1013.0 |
| 20260505025643 | 56 | 32 | 0.0 | 0.0 | 0.00 | 0.00 | 0.00 | 80 | 1013.0 |
| 20260505024708 | 56 | 51 | 0.0 | 0.0 | 0.00 | 0.00 | 0.00 | 79 | 1012.8 |
| 20260505022543 | 57 | 165 | 0.0 | 1.0 | 0.00 | 0.00 | 0.00 | 80 | 1012.8 |
| 20260505020452 | 58 | 79 | 0.0 | 2.0 | 0.00 | 0.00 | 0.00 | 80 | 1012.8 |
| 20260505015424 | 58 | 157 | 0.0 | 2.0 | 0.00 | 0.00 | 0.00 | 81 | 1012.7 |
| 20260505014410 | 58 | 79 | 0.0 | 0.0 | 0.00 | 0.00 | 0.00 | 80 | 1013.0 |
| 20260505013428 | 58 | 130 | 0.0 | 2.0 | 0.00 | 0.00 | 0.00 | 80 | 1013.2 |
| 20260505012415 | 58 | 157 | 0.0 | 2.0 | 0.00 | 0.00 | 0.00 | 80 | 1013.2 |
| 20260505010244 | 58 | 5 | 0.0 | 3.0 | 0.00 | 0.00 | 0.00 | 79 | 1013.3 |
| 20260505004055 | 59 | 130 | 0.0 | 2.0 | 0.00 | 0.00 | 0.00 | 78 | 1013.3 |
| 20260505003045 | 59 | 54 | 0.0 | 5.0 | 0.00 | 0.00 | 0.00 | 76 | 1013.3 |
| 20260505002028 | 59 | 149 | 0.0 | 5.0 | 0.00 | 0.00 | 0.00 | 76 | 1013.3 |
| 20260504235933 | 60 | 244 | 0.0 | 3.0 | 0.00 | 0.00 | 0.00 | 75 | 1013.4 |
| 20260504234953 | 60 | 117 | 0.0 | 1.0 | 0.00 | 0.00 | 0.00 | 74 | 1013.4 |
| 20260504234008 | 61 | 159 | 0.0 | 6.0 | 0.00 | 0.00 | 0.00 | 74 | 1013.2 |
| 20260504233006 | 61 | 279 | 0.0 | 6.0 | 0.00 | 0.00 | 0.00 | 74 | 1013.2 |
| 20260504232009 | 60 | 184 | 0.0 | 3.0 | 0.00 | 0.00 | 0.00 | 73 | 1013.2 |
| 20260504225822 | 61 | 130 | 0.0 | 3.0 | 0.00 | 0.00 | 0.00 | 72 | 1013.2 |
| 20260504224809 | 61 | 151 | 0.0 | 2.0 | 0.00 | 0.00 | 0.00 | 72 | 1013.2 |
| 20260504223754 | 61 | 142 | 0.0 | 3.0 | 0.00 | 0.00 | 0.00 | 71 | 1013.3 |
| 20260504222729 | 61 | 159 | 0.0 | 3.0 | 0.00 | 0.00 | 0.00 | 72 | 1013.3 |
| 20260504221655 | 61 | 181 | 0.0 | 3.0 | 0.00 | 0.00 | 0.00 | 69 | 1013.4 |
| 20260504214313 | 62 | 137 | 0.0 | 3.0 | 0.00 | 0.00 | 0.00 | 72 | 1013.5 |
| 20260504213316 | 62 | 355 | 0.0 | 3.0 | 0.00 | 0.00 | 0.00 | 72 | 1013.5 |
| 20260504212301 | 62 | 165 | 0.0 | 3.0 | 0.00 | 0.00 | 0.00 | 70 | 1013.5 |
| 20260504211304 | 62 | 119 | 0.0 | 5.0 | 0.00 | 0.00 | 0.00 | 72 | 1013.4 |
| 20260504210314 | 62 | 171 | 0.0 | 8.0 | 0.00 | 0.00 | 0.00 | 70 | 1013.4 |
| 20260504205247 | 62 | 14 | 0.0 | 8.0 | 0.00 | 0.00 | 0.00 | 69 | 1013.6 |
| 20260504204310 | 63 | 161 | 0.0 | 3.0 | 0.00 | 0.00 | 0.00 | 70 | 1013.6 |
| 20260504203333 | 62 | 153 | 0.0 | 4.0 | 0.00 | 0.00 | 0.00 | 72 | 1013.6 |
| 20260504202348 | 61 | 171 | 0.0 | 4.0 | 0.00 | 0.00 | 0.00 | 73 | 1013.6 |
| 20260504201401 | 62 | 163 | 0.0 | 4.0 | 0.00 | 0.00 | 0.00 | 72 | 1013.6 |
| 20260504200415 | 62 | 212 | 1.0 | 4.0 | 0.00 | 0.00 | 0.00 | 72 | 1013.5 |
| 20260504195356 | 62 | 26 | 0.0 | 4.0 | 0.00 | 0.00 | 0.00 | 72 | 1013.6 |
| 20260504194327 | 63 | 180 | 0.0 | 2.0 | 0.00 | 0.00 | 0.00 | 70 | 1013.8 |
| 20260504193309 | 62 | 146 | 0.0 | 3.0 | 0.00 | 0.00 | 0.00 | 69 | 1013.7 |
| 20260504191108 | 64 | 162 | 1.0 | 6.0 | 0.00 | 0.00 | 0.00 | 70 | 1013.6 |
| 20260504190109 | 63 | 157 | 0.0 | 3.0 | 0.00 | 0.00 | 0.00 | 67 | 1013.6 |
| 20260504185104 | 64 | 313 | 0.0 | 5.0 | 0.00 | 0.00 | 0.00 | 66 | 1013.7 |
| 20260504182919 | 63 | 162 | 1.0 | 7.0 | 0.00 | 0.00 | 0.00 | 67 | 1013.7 |
| 20260504175613 | 60 | 186 | 0.0 | 1.0 | 0.00 | 0.00 | 0.00 | 75 | 1013.6 |
| 20260504174542 | 61 | 193 | 0.0 | 3.0 | 0.00 | 0.00 | 0.00 | 73 | 1013.6 |
| 20260504173538 | 61 | 355 | 0.0 | 3.0 | 0.00 | 0.00 | 0.00 | 74 | 1013.5 |
| 20260504172511 | 59 | 147 | 0.0 | 4.0 | 0.00 | 0.00 | 0.00 | 75 | 1013.5 |
| 20260504171449 | 61 | 167 | 0.0 | 4.0 | 0.00 | 0.00 | 0.00 | 74 | 1013.5 |
| 20260504170444 | 60 | 91 | 1.0 | 6.0 | 0.00 | 0.00 | 0.00 | 74 | 1013.3 |
| 20260504160341 | 57 | 175 | 0.0 | 3.0 | 0.00 | 0.00 | 0.00 | 78 | 1013.1 |
| 20260504150225 | 56 | 168 | 0.0 | 3.0 | 0.00 | 0.00 | 0.00 | 85 | 1013.2 |
| 20260504141050 | 54 | 78 | 0.0 | 1.0 | 0.00 | 0.00 | 0.00 | 88 | 1013.3 |
| 20260504110326 | 54 | 105 | 0.0 | 0.0 | 0.00 | 0.00 | 0.00 | 87 | 1012.7 |
| 20260504081629 | 54 | 89 | 0.0 | 0.0 | 0.00 | 0.00 | 0.00 | 86 | 1012.9 |